Hourly Data Report for September 21, 2017

All times are specified in Local Standard Time (LST). Add 1 hour to adjust for Daylight Saving Time where and when it is observed.

NORTH CAPE
PRINCE EDWARD ISLAND

47°03'29.000" N
63°59'55.000" W
7.60 m
8300516
71987
WNE

Download Data

Hourly Data (September 2017)
Hourly Data Report for September 21, 2017
Temp Definition
°C
Dew Point Temp Definition
°C
Rel Hum Definition
%
Wind Dir Definition
10's deg

Wind Spd Definition
km/h
Visibility Definition
km
Stn Press Definition
kPa
Hmdx Definition


Wind Chill Definition


Weather Definition


TIME
00:00 12.9 11.5 91 33 11   101.70     LegendNANA
01:00 12.9 11.2 89 33 19   101.74     LegendNANA
02:00 13.4 10.9 85 34 22   101.72     LegendNANA
03:00 13.8 10.3 80 35 21   101.75     LegendNANA
04:00 13.8 9.8 77 1 30   101.77     LegendNANA
05:00 13.7 10.4 81 2 31   101.81     LegendNANA
06:00 13.7 10.7 83 3 26   101.89     LegendNANA
07:00 14.2 10.8 80 3 26   101.92     LegendNANA
08:00 14.7 10.2 75 4 28   101.99     LegendNANA
09:00 14.7 11.4 81 3 26   102.05     LegendNANA
10:00 14.8 11.3 79 4 24   102.11     LegendNANA
11:00 15.2 11.1 77 4 23   102.14     LegendNANA
12:00 15.4 11.4 77 4 20   102.16     LegendNANA
13:00 15.1 11.0 77 4 20   102.18     LegendNANA
14:00 15.0 10.6 75 3 20   102.16     LegendNANA
15:00 14.9 10.1 73 3 18   102.13     LegendNANA
16:00 15.1 9.7 70 5 16   102.15     LegendNANA
17:00 14.7 9.6 71 6 14   102.18     LegendNANA
18:00 13.9 8.9 72 8 13   102.20     LegendNANA
19:00 13.7 6.6 63 7 15   102.21     LegendNANA
20:00 13.5 7.5 67 7 12   102.24     LegendNANA
21:00 13.5 7.3 66 8 12   102.25     LegendNANA
22:00 13.4 8.0 70 9 12   102.24     LegendNANA
23:00 13.3 8.4 72 11 13   102.21     LegendNANA

Notes on Data Quality.

Legend

  • E = Estimated
  • M = Missing
  • NA = Not Available
  • ‡ = Partner data that is not subject to review by the National Climate Archives
Date modified: